This demonstration page uses our WeatherBlox Daily Observations layout. Learn more.

38.88101, -77.10428

Hourly Observations for June 17, 2016

Temp ( °F °C ) Dew Point ( °F °C ) Humidity (%) Winds ( mph kmh ) Pressure ( in mb ) Visibility ( mi km ) Precip ( " mm )
12:52 am 00:52 Cloudy 69 20.6 65 18.3 87 87 ESE 7 11 29.75 1007 10 16.0934 0 0
1:24 am 01:24 Cloudy 68 20 64 18 88 88 E 5 7 29.74 1007 10 16.0934 0 0
1:52 am 01:52 Cloudy 68 20 65 18.3 90 90 NE 12 19 29.74 1007 10 16.0934 0 0
2:52 am 02:52 Cloudy with Mist and Fog 67 19.4 65 18.3 93 93 NNE 12 19 29.75 1007 5 8.0467 0 0
3:00 am 03:00 Cloudy with Mist and Fog 66 19 64 18 94 94 NE 13 20 29.74 1007 4 6.43736 0 0
3:52 am 03:52 Cloudy with Mist and Fog 67 19.4 63 17.2 87 87 NE 13 20 29.75 1008 4 6.43736 0 0
3:57 am 03:57 Cloudy 67 19.4 63 17.2 87 87 NE 15 24 29.77 1008 7 11.26538 0 0
4:41 am 04:41 Cloudy 66 18.9 62 16.7 87 87 ENE 14 22 29.77 1008 7 11.26538 0 0
4:52 am 04:52 Cloudy 66 18.9 61 16.1 84 84 NE 16 26 29.76 1008 7 11.26538 0 0
5:06 am 05:06 Cloudy 66 19 61 16 83 83 NE 12 19 29.77 1008 10 16.0934 0 0
5:52 am 05:52 Cloudy 66 18.9 61 16.1 84 84 NE 10 17 29.78 1009 10 16.0934 0 0
6:22 am 06:22 Cloudy 66 19 61 16 83 83 NE 14 22 29.8 1009 10 16.0934 0 0
6:52 am 06:52 Cloudy 66 18.9 61 16.1 84 84 NNE 10 17 29.8 1009 10 16.0934 0 0
7:52 am 07:52 Cloudy 67 19.4 62 16.7 84 84 NNE 12 19 29.82 1010 10 16.0934 0 0
8:35 am 08:35 Cloudy 68 20 62 16.7 81 81 NNE 14 22 29.83 1010 10 16.0934 0 0
8:52 am 08:52 Mostly Cloudy 69 20.6 62 16.7 78 78 NE 8 13 29.84 1011 10 16.0934 0 0
9:45 am 09:45 Cloudy 68 20 61 16.1 78 78 NE 15 24 29.88 1012 10 16.0934 0 0
9:52 am 09:52 Cloudy 68 20 61 16.1 78 78 NE 13 20 29.88 1012 10 16.0934 0 0
10:52 am 10:52 Cloudy 70 21.1 63 17.2 79 79 NNE 13 20 29.91 1013 10 16.0934 0 0
11:11 am 11:11 Cloudy 74 23.3 64 17.8 71 71 ENE 14 22 29.91 1013 10 16.0934 0 0
11:52 am 11:52 Mostly Cloudy 76 24.4 60 15.6 58 58 NE 16 26 29.91 1013 10 16.0934 0 0
12:52 pm 12:52 Mostly Cloudy 79 26.1 58 14.4 49 49 ENE 16 26 29.93 1014 10 16.0934 0 0
1:52 pm 13:52 Mostly Cloudy 80 26.7 58 14.4 47 47 ENE 9 15 29.94 1014 10 16.0934 0 0
2:52 pm 14:52 Mostly Sunny 81 27.2 60 15.6 49 49 NE 13 20 29.95 1014 10 16.0934 0 0
3:52 pm 15:52 Mostly Sunny 81 27.2 59 15 47 47 ENE 10 17 29.96 1014 10 16.0934 0 0
4:52 pm 16:52 Mostly Sunny 81 27.2 59 15 47 47 E 8 13 29.96 1015 10 16.0934 0 0
5:52 pm 17:52 Mostly Sunny 81 27.2 58 14.4 45 45 SE 6 9 29.96 1015 10 16.0934 0 0
6:52 pm 18:52 Mostly Sunny 80 26.7 57 13.9 45 45 ESE 9 15 29.96 1015 10 16.0934 0 0
7:52 pm 19:52 Mostly Sunny 78 25.6 57 13.9 48 48 SE 8 13 29.98 1015 10 16.0934 0 0
8:52 pm 20:52 Partly Cloudy 76 24.4 56 13.3 50 50 SE 7 11 30.01 1016 10 16.0934 0 0
9:52 pm 21:52 Partly Cloudy 75 23.9 55 12.8 50 50 SSE 7 11 30.05 1018 10 16.0934 0 0
10:52 pm 22:52 Partly Cloudy 73 22.8 56 13.3 55 55 SSE 7 11 30.08 1019 10 16.0934 0 0
11:52 pm 23:52 Partly Cloudy 71 21.7 57 13.9 61 61 ESE 7 11 30.09 1019 10 16.0934 0 0

Powered by AerisWeather